Regional Weather Roundup
Issued by NWS

Home | Current Version | Previous Version | Graphics & Text | Print | Product List | Glossary Off
Versions: 1 2 3 4 5 6 7 8 9 10 11 12 13 14 15 16 17 18 19 20 21 22 23 24 25 26 27 28 29 30 31 32 33 34 35 36 37 38 39 40 41 42 43 44 45 46 47 48 49 50

000
ASUS43 KTOP 221759
RWRKS

WEATHER ROUNDUP FOR KANSAS
NATIONAL WEATHER SERVICE GOODLAND KS
100 PM CDT SUN APR 22 2018

NOTE:  "FAIR" INDICATES FEW OR NO CLOUDS BELOW 12,000 FEET WITH NO
SIGNIFICANT WEATHER AND/OR OBSTRUCTIONS TO VISIBILITY.

KSZ001>006-013>018-027>032-041>047-221900-
NORTHWEST KANSAS

CITY           SKY/WX    TMP DP  RH WIND       PRES   REMARKS
GOODLAND       CLOUDY    49  36  61 SE6       30.21F
6HR MIN TEMP:  32; 6HR MAX TEMP:  49;

HAYS           MOSUNNY   58  39  49 NE16G22   30.21F
HILL CITY      CLOUDY    54  41  61 NE10      30.24F
6HR MIN TEMP:  41; 6HR MAX TEMP:  54;

RUSSELL        SUNNY     59  40  49 N16       30.18F
6HR MIN TEMP:  41; 6HR MAX TEMP:  59;

$$

KSZ061>065-074>080-084>089-221900-
SOUTHWEST KANSAS

CITY           SKY/WX    TMP DP  RH WIND       PRES   REMARKS
DODGE CITY     PTSUNNY   54  39  57 N12       30.19F
6HR MIN TEMP:  38; 6HR MAX TEMP:  55;

GARDEN CITY    CLOUDY    51  38  60 N14       30.21F
6HR MIN TEMP:  33; 6HR MAX TEMP:  51;

GREAT BEND     PTSUNNY   57  41  55 N20       30.18F
LIBERAL        PTSUNNY   54  37  52 N12       30.22S
$$

KSZ066>073-081>083-090>101-221900-
SOUTHEAST KANSAS

CITY           SKY/WX    TMP DP  RH WIND       PRES   REMARKS
CHANUTE        LGT RAIN  50  49  96 N13       30.04F FOG
6HR MIN TEMP:  48; 6HR MAX TEMP:  50; 6HR PCP:  0.11;

COFFEYVILLE    CLOUDY    52  49  89 N14G22    30.02S
6HR MIN TEMP:  49; 6HR MAX TEMP:  53; 6HR PCP:  0.02;

HUTCHINSON     CLOUDY    55  41  59 N14G22    30.15F
6HR MIN TEMP:  44; 6HR MAX TEMP:  55;

MEDICINE LODGE   N/A     57  42  57 N17G35    30.14F
NEWTON         CLOUDY    51  43  74 NW17      30.12F
PARSONS        LGT RAIN  51  50  96 N12       30.03F FOG
6HR MIN TEMP:  50; 6HR MAX TEMP:  51; 6HR PCP:  0.05;

WICHITA INTL   CLOUDY    51  42  71 NW21G26   30.11F
6HR MIN TEMP:  45; 6HR MAX TEMP:  51; 6HR PCP: TRACE;

WICHITA JABRA  CLOUDY    51  44  77 N16       30.11S
6HR MIN TEMP:  44; 6HR MAX TEMP:  52; 6HR PCP: TRACE;

WICHITA MCCONL CLOUDY    50  41  71 N14       30.10F
WINFIELD       CLOUDY    53  46  77 NW16      30.09S
6HR MIN TEMP:  45; 6HR MAX TEMP:  53; 6HR PCP:  0.01;

$$

KSZ007>012-019>026-033>040-048>060-102>105-221900-
NORTHEAST KANSAS

CITY           SKY/WX    TMP DP  RH WIND       PRES   REMARKS
CONCORDIA      CLOUDY    56  38  50 N10       30.18F
6HR MIN TEMP:  39; 6HR MAX TEMP:  57;

EMPORIA        LGT RAIN  48  45  89 N13       30.10F FOG
6HR MIN TEMP:  46; 6HR MAX TEMP:  49; 6HR PCP:  0.03;

LAWRENCE       CLOUDY    56  49  77 NE12      30.11F
6HR MIN TEMP:  48; 6HR MAX TEMP:  57; 6HR PCP:  0.06;

MANHATTAN      CLOUDY    61  41  47 NE12      30.14F
6HR MIN TEMP:  45; 6HR MAX TEMP:  61;

OLATHE IND     CLOUDY    55  49  80 NE17      30.11F
6HR MIN TEMP:  47; 6HR MAX TEMP:  55; 6HR PCP:  0.17;

OLATHE EXE     CLOUDY    54  48  80 NE17G23   30.10F
6HR MIN TEMP:  45; 6HR MAX TEMP:  54; 6HR PCP:  0.17;

SALINA         CLOUDY    58  44  60 NW16      30.16F
6HR MIN TEMP:  44; 6HR MAX TEMP:  58;

TOPEKA BILLARD LGT RAIN  53  48  83 NE9       30.13F
6HR MIN TEMP:  48; 6HR MAX TEMP:  53; 6HR PCP:  0.02;

TOPEKA FORBES  LGT RAIN  51  47  86 N10       30.12S FOG
6HR MIN TEMP:  49; 6HR MAX TEMP:  52; 6HR PCP:  0.05;

$$



USA.gov is the U.S. government's official web portal to all federal, state and local government web resources and services.